Precipitable_Water
1.40 1.38 1.29 1.29 1.28 1.26 1.27 1.28 1.28 1.25 1.24 1.30 1.31 1.32 1.32 1.30 1.30 1.30 1.30 1.29 1.34 1.38 1.37 1.33 1.30 1.35 1.41 1.45 1.47 1.45 1.44 1.47
1.45 1.41 1.32 1.32 1.34 1.30 1.28 1.28 1.29 1.26 1.24 1.28 1.29 1.30 1.30 1.30 1.32 1.32 1.30 1.31 1.33 1.33 1.34 1.35 1.33 1.38 1.39 1.42 1.48 1.51 1.42 1.52
1.46 1.47 1.39 1.38 1.42 1.40 1.36 1.33 1.32 1.28 1.27 1.29 1.30 1.30 1.32 1.31 1.30 1.32 1.28 1.29 1.27 1.34 1.38 1.36 1.34 1.36 1.39 1.43 1.51 1.55 1.47 1.42
1.44 1.47 1.46 1.43 1.50 1.54 1.46 1.40 1.40 1.34 1.30 1.31 1.31 1.30 1.32 1.32 1.31 1.31 1.32 1.27 1.23 1.26 1.35 1.37 1.34 1.38 1.43 1.47 1.47 1.51 1.50 1.55
1.39 1.54 1.52 1.51 1.48 1.54 1.55 1.46 1.44 1.39 1.35 1.34 1.31 1.31 1.34 1.34 1.36 1.35 1.31 1.33 1.26 1.25 1.29 1.31 1.28 1.28 1.38 1.38 1.48 1.50 1.49 1.56
1.39 1.51 1.56 1.62 1.62 1.58 1.59 1.50 1.47 1.37 1.39 1.40 1.34 1.29 1.26 1.31 1.26 1.34 1.30 1.30 1.26 1.26 1.20 1.23 1.29 1.30 1.31 1.32 1.43 1.56 1.55 1.51
0.74 1.23 1.46 1.59 1.62 1.61 1.58 1.50 1.47 1.36 1.36 1.37 1.32 1.29 1.24 1.28 1.30 1.34 1.34 1.27 1.29 1.25 1.27 1.24 1.24 1.30 1.38 1.39 1.41 1.47 1.50 1.46
0.66 0.70 1.07 1.40 1.49 1.60 1.55 1.47 1.45 1.39 1.36 1.30 1.30 1.26 1.24 1.24 1.27 1.30 1.28 1.34 1.32 1.30 1.32 1.32 1.23 1.25 1.31 1.40 1.39 1.44 1.43 1.40
0.74 0.74 0.74 0.92 1.29 1.42 1.48 1.46 1.45 1.38 1.36 1.35 1.22 1.26 1.23 1.22 1.21 1.23 1.22 1.35 1.31 1.33 1.29 1.30 1.30 1.26 1.25 1.30 1.34 1.35 1.37 1.35
0.73 0.77 0.78 0.82 0.84 1.09 1.33 1.35 1.44 1.48 1.40 1.35 1.28 1.21 1.23 1.23 1.26 1.21 1.26 1.23 1.29 1.26 1.28 1.21 1.23 1.20 1.16 1.23 1.27 1.34 1.33 1.34
0.66 0.70 0.74 0.78 0.79 0.80 0.92 1.20 1.31 1.41 1.50 1.45 1.40 1.36 1.30 1.20 1.18 1.19 1.24 1.22 1.24 1.21 1.21 1.20 1.18 1.15 1.14 1.16 1.21 1.28 1.29 1.29
0.61 0.62 0.64 0.70 0.73 0.73 0.70 0.78 1.07 1.20 1.33 1.41 1.49 1.49 1.47 1.39 1.24 1.21 1.23 1.23 1.22 1.17 1.13 1.17 1.15 1.13 1.12 1.05 1.12 1.20 1.21 1.17
0.56 0.54 0.56 0.56 0.54 0.56 0.59 0.57 0.72 0.96 1.13 1.25 1.41 1.51 1.56 1.51 1.38 1.31 1.23 1.20 1.26 1.22 1.17 1.11 1.09 1.16 1.08 0.98 1.03 1.11 1.11 1.17
0.57 0.57 0.58 0.58 0.57 0.58 0.61 0.61 0.61 0.84 1.04 1.08 1.20 1.30 1.48 1.55 1.42 1.36 1.25 1.20 1.27 1.27 1.15 1.06 1.11 1.15 1.00 0.92 0.73 0.87 0.98 1.10
0.56 0.59 0.63 0.67 0.67 0.66 0.64 0.67 0.65 0.65 0.93 1.01 1.06 1.18 1.26 1.42 1.36 1.48 1.21 1.19 1.20 1.28 1.19 1.07 0.99 1.09 1.13 0.96 0.72 0.63 0.77 0.99
0.59 0.61 0.65 0.71 0.75 0.71 0.68 0.65 0.62 0.59 0.72 1.04 0.98 1.05 1.23 1.24 1.31 1.54 1.24 1.21 1.23 1.32 1.29 1.17 1.13 0.95 1.09 1.12 1.01 0.93 0.69 0.67
0.59 0.62 0.66 0.72 0.76 0.77 0.75 0.71 0.73 0.78 0.72 0.95 0.98 1.03 1.10 1.19 1.18 1.24 1.36 1.29 1.28 1.35 1.41 1.26 1.19 1.09 0.99 1.00 0.97 0.98 0.92 0.81
0.59 0.61 0.66 0.72 0.77 0.79 0.78 0.78 0.77 0.80 0.78 0.88 1.00 1.04 1.03 1.14 1.22 1.20 1.25 1.35 1.27 1.25 1.13 1.36 1.24 1.15 1.12 1.08 0.94 0.85 0.81 0.82
0.57 0.58 0.62 0.71 0.78 0.80 0.80 0.81 0.84 0.83 0.79 0.83 1.07 1.08 1.03 1.05 1.21 1.17 1.20 1.35 1.14 0.96 0.88 1.44 1.41 1.24 1.15 1.12 1.04 0.96 0.94 0.96
0.55 0.57 0.61 0.72 0.80 0.82 0.83 0.86 0.83 0.82 0.82 0.83 1.03 1.12 1.06 1.16 1.25 1.22 1.24 1.36 1.23 1.23 1.17 1.32 1.34 1.29 1.21 1.16 1.09 0.98 0.96 1.07
Wind_Speed
22 21 23 24 24 24 23 22 21 19 18 18 18 18 18 18 17 17 17 16 16 16 16 16 16 15 15 14 14 14 15 14
23 23 24 25 25 25 25 24 23 22 21 20 20 19 19 19 19 18 18 18 18 18 18 17 17 17 17 17 16 16 16 16
25 25 24 26 26 26 26 26 25 24 23 22 21 20 21 20 20 20 19 19 19 19 19 18 18 19 19 18 18 17 17 18
26 27 27 27 27 26 27 27 27 26 25 24 23 22 22 21 21 21 21 20 20 20 20 20 20 19 20 20 19 19 19 18
25 27 28 28 29 29 27 29 28 28 27 26 25 24 23 23 22 22 23 22 21 20 20 20 20 21 20 20 21 20 19 20
23 26 28 29 30 30 30 31 30 29 28 29 27 26 25 24 24 22 23 23 23 22 21 21 21 22 22 21 22 21 20 21
25 25 27 29 31 31 32 32 33 33 32 31 30 29 27 26 26 25 23 23 23 23 22 21 21 22 23 22 22 22 22 20
25 26 28 30 31 32 33 34 34 34 34 34 34 33 31 29 28 27 26 25 25 24 23 22 22 22 23 23 23 24 23 24
26 28 28 31 33 34 34 35 36 36 36 36 35 35 34 32 32 30 28 27 27 26 25 25 24 24 24 25 25 25 24 24
26 28 29 31 33 35 36 37 38 38 38 38 38 38 38 36 34 33 31 30 28 28 27 27 26 25 25 25 26 26 25 25
26 27 29 31 33 35 38 40 40 41 40 40 40 40 40 39 37 35 34 33 31 31 29 28 27 26 27 26 27 26 26 26
26 27 29 31 34 36 37 40 42 43 43 43 42 42 42 41 40 38 37 35 34 33 32 30 29 28 27 27 27 26 26 26
25 27 29 31 33 35 38 40 42 44 46 46 46 45 45 44 42 40 39 37 35 35 33 32 31 29 27 27 27 27 26 25
26 28 30 33 35 37 39 41 43 43 46 48 50 49 48 48 46 43 41 39 37 36 36 33 32 30 28 25 25 25 26 26
27 29 31 33 36 39 41 44 46 47 45 46 48 50 51 51 48 46 43 40 38 37 37 36 34 32 30 26 24 24 23 25
28 30 32 34 36 38 41 44 44 45 48 46 46 48 49 51 50 49 45 43 39 38 37 37 35 33 31 31 28 24 23 21
29 31 33 34 36 38 40 42 42 43 46 46 45 44 44 45 49 49 46 43 41 38 37 37 36 33 32 29 30 27 26 23
29 31 33 34 36 37 39 40 41 40 40 42 40 40 40 41 43 48 47 45 42 41 42 42 37 34 32 31 29 27 27 26
29 31 32 34 35 36 36 35 35 37 39 40 40 37 37 38 40 44 46 45 42 41 37 40 38 35 33 32 30 29 28 27
28 30 32 34 34 34 31 32 32 34 36 38 37 35 34 34 36 40 43 44 42 40 36 36 36 35 34 33 30 29 29 29
Wind_Direction
244 243 236 235 236 238 239 240 242 246 248 250 252 252 253 253 253 252 252 253 254 256 257 257 258 258 258 259 260 258 257 259
245 244 238 237 239 239 240 240 242 245 248 251 253 253 253 253 252 252 252 254 256 256 256 256 258 257 258 259 261 259 258 262
246 245 242 240 240 241 241 241 243 246 248 250 251 254 254 252 251 251 253 254 257 258 257 257 258 258 258 260 260 260 258 261
248 246 245 243 242 242 242 242 244 246 248 249 250 252 254 252 251 252 253 254 257 258 258 257 258 260 259 259 259 260 260 262
250 246 245 242 242 244 245 243 245 246 248 248 248 251 253 252 251 251 252 253 255 256 258 259 259 260 259 259 258 259 261 265
254 249 246 244 245 245 245 245 246 248 248 246 247 249 252 252 251 253 251 252 253 255 258 260 260 260 260 259 258 258 261 264
257 253 249 247 247 246 246 246 247 249 249 248 247 248 249 250 251 252 253 252 253 254 257 260 261 261 259 260 258 257 261 262
259 258 255 251 250 249 249 248 249 249 249 248 247 247 246 249 249 251 254 253 252 253 255 258 260 262 262 261 259 258 260 262
261 260 258 255 254 251 252 251 250 250 249 249 248 245 245 246 248 250 252 254 252 253 256 256 259 261 263 263 260 259 260 261
265 262 261 259 256 254 253 253 253 252 252 250 249 246 245 245 248 249 250 251 253 252 254 257 257 261 263 262 261 259 260 262
269 268 265 263 261 258 256 255 253 252 251 251 249 248 247 246 247 248 248 250 252 252 253 254 256 259 262 262 261 259 260 261
272 271 270 268 265 262 260 258 255 253 252 251 249 248 247 245 246 247 247 248 251 251 252 252 254 258 260 262 260 259 260 261
277 276 274 272 270 268 264 261 258 255 252 251 249 249 246 246 245 245 244 246 249 249 248 249 251 254 258 261 258 258 259 258
281 282 279 276 272 269 267 264 261 260 255 253 250 248 246 244 244 242 243 245 247 247 246 247 249 251 254 255 258 257 258 257
286 285 284 281 277 274 271 267 263 259 257 254 251 248 245 242 246 240 242 243 246 245 244 243 245 248 247 250 255 257 259 257
289 290 288 285 282 278 274 269 266 261 255 254 251 247 246 243 240 240 239 240 242 242 242 241 241 242 243 247 253 257 258 259
293 293 292 291 288 282 277 271 267 264 256 252 247 244 243 242 238 236 236 237 237 239 238 237 238 239 242 246 250 254 255 256
296 297 297 295 292 287 280 274 267 262 255 247 242 240 240 240 238 234 233 233 235 237 249 241 235 236 240 244 249 251 252 250
300 301 301 299 296 291 283 276 267 260 253 242 239 238 239 239 236 231 229 232 234 241 254 231 231 235 238 243 247 250 251 249
303 305 306 304 299 295 285 277 268 260 248 237 238 236 237 237 234 231 230 233 236 239 238 232 233 234 238 241 246 250 248 246